Location: Hermaringen
(48.5952°N, 10.2585°E)
Time: 06:13:50
(UTC+00:00)

Sich 1 Rocket - Pass Details

Date: 18 November 2025
Orbit: 611 x 646 km, 82.5° (Epoch: 06 December)

Event Time Altitude Azimuth Distance (km) Brightness Sun altitude
Rises 18:06:10 0° 197° (SSW) 2,939 7.3 -24.6°
Reaches altitude 10° 18:08:26 10° 201° (SSW) 2,038 6.4 -24.9°
Maximum altitude 18:12:55 62° 282° (WNW) 730 4.0 -25.7°
Enters shadow 18:14:55 32° 352° (N) 1,121 4.9 -26.0°
